TimeCST,TemperatureF,Dew PointF,Humidity,Sea Level PressureIn,VisibilityMPH,Wind Direction,Wind SpeedMPH,Gust SpeedMPH,PrecipitationIn,Events,Conditions,WindDirDegrees,DateUTC
12:00 AM,72,63,65,29.79,12,ENE,6.9,,,,Clear,60,2013-04-15 06:00:00
12:00 AM,71.6,62.6,73,29.98,-9999.0,ENE,6.9,-,N/A,,Clear,60,2013-04-15 06:00:00
1:00 AM,71.6,62.6,73,29.96,-9999.0,ENE,6.9,-,N/A,,Clear,70,2013-04-15 07:00:00
2:00 AM,71.6,62.6,73,29.95,-9999.0,East,6.9,-,N/A,,Clear,90,2013-04-15 08:00:00
3:00 AM,71,62,65,29.79,12,East,5.8,,,,Clear,100,2013-04-15 09:00:00
3:00 AM,71.6,62.6,73,29.95,-9999.0,East,5.8,-,N/A,,Clear,100,2013-04-15 09:00:00
4:00 AM,69.8,62.6,78,29.96,-9999.0,East,9.2,-,N/A,,Clear,80,2013-04-15 10:00:00
5:00 AM,69.8,60.8,73,29.97,-9999.0,East,10.4,-,N/A,,Clear,80,2013-04-15 11:00:00
6:00 AM,72,62,62,29.83,12,East,11.5,,,,Clear,90,2013-04-15 12:00:00
6:00 AM,71.6,62.6,73,29.98,-9999.0,East,11.5,-,N/A,,Clear,90,2013-04-15 12:00:00
7:00 AM,75.2,62.6,65,30.00,-9999.0,East,5.8,-,N/A,,Clear,90,2013-04-15 13:00:00
8:00 AM,80.6,60.8,51,30.02,-9999.0,SE,6.9,-,N/A,,Clear,130,2013-04-15 14:00:00
9:00 AM,82,61,39,29.83,12,ESE,9.2,,,,Clear,110,2013-04-15 15:00:00
9:00 AM,82.4,59.0,45,30.03,-9999.0,South,6.9,-,N/A,,Clear,170,2013-04-15 15:00:00
10:00 AM,80.6,66.2,61,30.03,6.2,WSW,9.2,-,N/A,,Mostly Cloudy,240,2013-04-15 16:00:00
11:00 AM,84.2,64.4,51,30.02,6.2,SSW,8.1,-,N/A,,Mostly Cloudy,210,2013-04-15 17:00:00
12:00 PM,86.0,66.2,51,30.01,6.2,WSW,9.2,-,N/A,,Mostly Cloudy,240,2013-04-15 18:00:00
1:00 PM,84.2,66.2,55,29.97,6.2,WSW,13.8,-,N/A,,Mostly Cloudy,240,2013-04-15 19:00:00
2:00 PM,80.6,68.0,65,29.95,6.2,WSW,15.0,-,N/A,,Mostly Cloudy,250,2013-04-15 20:00:00
3:00 PM,70,65,80,29.79,0,ENE,23.0,,,Rain-Thunderstorm,Heavy Thunderstorms and Rain,70,2013-04-15 21:00:00
4:00 PM,71.6,68.0,88,29.93,6.2,ESE,5.8,-,N/A,,Mostly Cloudy,110,2013-04-15 22:00:00
5:00 PM,73.4,68.0,83,29.96,6.2,NW,2.3,-,N/A,,Mostly Cloudy,320,2013-04-15 23:00:00
6:00 PM,73.4,68.0,83,29.97,6.2,West,2.3,-,N/A,,Mostly Cloudy,270,2013-04-16 00:00:00
7:00 PM,71.6,68.0,88,30.00,6.2,WNW,2.3,-,N/A,,Mostly Cloudy,300,2013-04-16 01:00:00
9:00 PM,71,68,86,29.82,12,NNW,3.5,,,,Partly Cloudy,340,2013-04-16 03:00:00